Tracking 35237 objects as of 4-Sep-2026
HD Live streaming from Space Station
objects crossing your sky now

STARLINK-36169

Track STARLINK-36169 now!
10-day predictions
STARLINK-36169 is classified as:


NORAD ID: 66929
Int'l Code: 2025-286E
Launch date: December 7, 2025
Source: United States (US)
Launch site: AIR FORCE WESTERN TEST RANGE (AFWTR)
Your satellite tracking list
Your tracking list is empty




NASA's NSSDC Master Catalog

Two Line Element Set (TLE):
1 66929U 25286E   26247.55899889  .00006966  00000-0  21718-3 0  9996
2 66929  53.1592 243.9945 0001510  60.7739 299.3415 15.34389568 42858
Source of the keplerian elements: AFSPC